Weather History for New Haven, CT

Change the Weather History Date:

Friday, December 7, 2012

  Actual Average Record
Temperature  
Mean Temperature 35 °F -  
Max Temperature 46 °F 42 °F 75 °F (1998)
Min Temperature 24 °F 30 °F 15 °F (1970)
Degree Days  
Heating Degree Days 30    
Moisture  
Dew Point 35 °F    
Average Humidity 83    
Maximum Humidity 93    
Minimum Humidity 65    
Precipitation  
Precipitation 0.04 in - - ()
Sea Level Pressure  
Sea Level Pressure 30.14 in    
Wind  
Wind Speed 1 mph (South)    
Max Wind Speed 5 mph    
Max Gust Speed -    
Visibility 8 miles    
Events Rain    
Averages and records for this station are not official NWS values.
T = Trace of Precipitation, MM = Missing Value Source: NWS Daily Summary

Daily Weather History Graph

Daily Weather History Graph

Search for Another Location

Airport:

Trip Planner

Search our weather history database for the weather conditions in past years. The results will help you decide how hot, cold, wet, or windy it might be!

Date:

Astronomy

Dec. 07, 2012 Rise Set
Actual Time 7:04 AM EST 4:22 PM EST
Civil Twilight 6:33 AM EST 4:53 PM EST
Nautical Twilight 5:58 AM EST 5:27 PM EST
Astronomical Twilight 5:25 AM EST 6:01 PM EST
Moon 12:16 AM EST (12/7) 12:20 PM EST (12/7)
Length of Visible Light 10h 20m
Length of Day
9h 18m
Last Quarter, 39% of the Moon is Illuminated
Dec 7
Last Quarter
Dec 13
New
Dec 20
First Quarter
Dec 28
Full
Jan 4
Last Quarter

Hourly Weather History & Observations

Time (EST) Temp. Windchill Dew Point Humidity Pressure Visibility Wind Dir Wind Speed Gust Speed Precip Events Conditions
12:53 AM 24.1 °F 19.7 °F 19.9 °F 84% 30.28 in 10.0 mi NNE 3.5 mph - N/A   Clear
1:53 AM 26.1 °F - 19.9 °F 78% 30.28 in 10.0 mi Calm Calm - N/A   Clear
2:53 AM 27.0 °F - 21.0 °F 78% 30.27 in 10.0 mi Calm Calm - N/A   Clear
3:53 AM 27.0 °F - 21.0 °F 78% 30.25 in 10.0 mi Calm Calm - N/A   Clear
4:53 AM 25.0 °F - 19.9 °F 81% 30.23 in 10.0 mi Calm Calm - N/A   Clear
5:42 AM 26.6 °F - 21.2 °F 80% 30.24 in 10.0 mi Calm Calm - N/A   Mostly Cloudy
5:53 AM 28.0 °F - 23.0 °F 81% 30.24 in 10.0 mi Calm Calm - N/A   Overcast
6:53 AM 30.0 °F 26.5 °F 25.0 °F 82% 30.22 in 10.0 mi North 3.5 mph - N/A   Overcast
7:53 AM 32.0 °F - 26.1 °F 79% 30.24 in 10.0 mi Calm Calm - N/A   Overcast
8:53 AM 36.0 °F 33.3 °F 27.0 °F 70% 30.23 in 10.0 mi NNE 3.5 mph - N/A   Mostly Cloudy
9:53 AM 41.0 °F - 30.9 °F 67% 30.22 in 10.0 mi Calm Calm - N/A   Mostly Cloudy
10:53 AM 43.0 °F 41.3 °F 32.0 °F 65% 30.19 in 10.0 mi SSE 3.5 mph - N/A   Overcast
11:53 AM 44.1 °F 41.5 °F 34.0 °F 68% 30.17 in 10.0 mi SE 4.6 mph - N/A   Overcast
12:53 PM 44.1 °F - 35.1 °F 71% 30.15 in 10.0 mi Calm Calm - N/A   Overcast
1:53 PM 43.0 °F - 36.0 °F 76% 30.12 in 6.0 mi Calm Calm - 0.03 in Rain Light Rain
2:53 PM 43.0 °F - 39.0 °F 86% 30.11 in 7.0 mi Calm Calm - 0.00 in   Overcast
3:53 PM 43.0 °F - 39.0 °F 86% 30.10 in 7.0 mi Calm Calm - 0.00 in   Overcast
4:53 PM 44.1 °F - 39.9 °F 85% 30.09 in 6.0 mi Calm Calm - 0.00 in Rain Light Rain
5:27 PM 44.6 °F 42.2 °F 42.8 °F 93% 30.09 in 6.0 mi South 4.6 mph - 0.01 in Rain Light Rain
5:53 PM 46.0 °F 43.9 °F 42.1 °F 86% 30.08 in 10.0 mi South 4.6 mph - 0.01 in Rain Light Rain
6:48 PM 46.4 °F 45.2 °F 42.8 °F 87% 30.09 in 10.0 mi SSW 3.5 mph - 0.00 in   Overcast
6:53 PM 46.9 °F - 43.0 °F 86% 30.09 in 10.0 mi SSW 3.5 mph - 0.00 in   Overcast
7:50 PM 46.4 °F 45.2 °F 42.8 °F 87% 30.08 in 10.0 mi SSW 3.5 mph - 0.00 in   Overcast
7:53 PM 46.9 °F - 43.0 °F 86% 30.08 in 10.0 mi Calm Calm - 0.00 in   Overcast
8:53 PM 46.9 °F - 44.1 °F 90% 30.07 in 5.0 mi Calm Calm - 0.00 in Rain Light Rain
9:10 PM 46.4 °F - 44.6 °F 93% 30.07 in 6.0 mi Calm Calm - 0.00 in Rain Light Rain
9:29 PM 46.4 °F - 44.6 °F 93% 30.07 in 6.0 mi Calm Calm - 0.00 in   Overcast
9:53 PM 46.9 °F - 44.1 °F 90% 30.07 in 4.0 mi Calm Calm - 0.00 in Rain Light Rain
10:53 PM 46.9 °F - 44.1 °F 90% 30.06 in 5.0 mi Calm Calm - 0.00 in   Overcast
11:16 PM 46.4 °F - 42.8 °F 87% 30.04 in 2.5 mi Calm Calm - N/A   Overcast
11:41 PM 46.4 °F - 44.6 °F 93% 30.04 in 1.8 mi Calm Calm - N/A   Overcast
11:53 PM 46.0 °F - 43.0 °F 89% 30.03 in 1.0 mi Calm Calm - N/A   Overcast